Weather in Sladkovskoye

Russia / Sverdlovsk Oblast     57°45′14″N   64°13′03″E
temp.,
°C
wind,
m/s
gust,
m/s
humid.,
%
clouds,
%
prec.,
mm/h
press.,
hPa
HPBL,
m
5 august, thu
thu523:00+18ssw229291 1.2 101137
02:00+17sse229116 0.0 101114
05:00+16se229180 0.0 101113
08:00+21se357720 0.0 1010300
11:00+27sse455466 0.0 1009759
14:00+29sse334787 0.0 10081166
17:00+31wsw244190 0.0 10071715
20:00+26sse346468 0.0 100671
6 august, fri
fri623:00+19ssw51192100 3.7 1007375
02:00+18nw3595100 4.7 100591
05:00+17sw249372 4.9 100597
08:00+18wnw239597 1.3 1005147
11:00+19nw359391 1.4 1006348
14:00+24nnw446584 0.0 10061098
17:00+22nnw557087 0.1 1007980
20:00+19nnw4986100 0.3 1007473
7 august, sat
sat723:00+17nnw51092100 0.3 1008539
02:00+16nnw51089100 0.0 1008463
05:00+15nw51194100 0.2 1008478
08:00+16nw51185100 0.0 1008595
11:00+16nw51187100 0.4 1009673
14:00+16nw51094100 3.3 1010463
17:00+18nnw388829 4.3 1010622
20:00+16nnw498462 0.1 1011575
8 august, sun
sun823:00+15nw41082100 0.1 1011541
02:00+15nw51079100 0.0 1011571
05:00+13nw51193100 0.6 1011473
08:00+13nw51197100 2.1 1011505
11:00+13nw51197100 2.9 1012478
14:00+14nnw5996100 0.0 1013415
17:00+19nnw477972 0.0 1014644
20:00+18nnw378515 0.0 1014245
9 august, mon
mon923:00+16nnw39965 0.0 1015195
02:00+16nnw31095100 0.0 1015247
05:00+14nnw399819 0.0 1016225
08:00+18nnw468064 0.0 1016393
11:00+22nnw456019 0.0 10161049
14:00+25nnw444927 0.0 10161534
17:00+24nw445296 0.0 10161536
20:00+20wnw2568100 0.0 1016104